FW2516 Weather Reports


time (UTC)temp
C
wind
direction
speed
KPH
gust
KPH
rain 1hr
cm
rain 24hr
cm
rain mn
cm
humidity
%
barometer
mb
20260505034520 12 185 0.0 0.0 0.00 0.00 0.00 58 1014.9
20260505031523 14 184 0.0 0.0 0.00 0.00 0.00 52 1015.0
20260505030010 15 186 0.0 0.0 0.00 0.00 0.00 51 1014.9
20260505024509 15 186 0.0 0.0 0.00 0.00 0.00 48 1014.8
20260505021510 17 186 0.0 0.0 0.00 0.00 0.00 40 1014.8
20260505020009 18 180 0.0 0.0 0.00 0.00 0.00 37 1014.6
20260505014509 18 180 0.0 1.6 0.00 0.00 0.00 35 1014.6
20260505011516 19 178 1.6 4.8 0.00 0.00 0.00 32 1014.3
20260505010022 19 179 0.0 3.2 0.00 0.00 0.00 34 1014.2
20260505004509 20 178 0.0 3.2 0.00 0.00 0.00 29 1014.1
20260505001506 21 208 0.0 0.0 0.00 0.00 0.00 27 1013.9
20260505000007 22 198 0.0 0.0 0.00 0.00 0.00 26 1013.7
20260504234508 22 198 1.6 8.0 0.00 0.00 0.00 25 1013.9
20260504231506 23 192 0.0 4.8 0.00 0.00 0.00 24 1013.5
20260504230007 24 196 0.0 3.2 0.00 0.00 0.00 22 1013.5
20260504224506 25 203 0.0 4.8 0.00 0.00 0.00 23 1013.5
20260504221503 25 205 0.0 9.7 0.00 0.00 0.00 21 1013.4
20260504220008 26 176 1.6 9.7 0.00 0.00 0.00 20 1013.5
20260504214504 26 176 0.0 6.4 0.00 0.00 0.00 21 1013.5
20260504211506 27 119 0.0 6.4 0.00 0.00 0.00 17 1013.5
20260504210002 27 208 6.4 16.1 0.00 0.00 0.00 17 1013.5
20260504204503 27 176 4.8 16.1 0.00 0.00 0.00 19 1013.7
20260504203202 27 131 1.6 11.3 0.00 0.00 0.00 16 1014.0
20260504201600 27 195 3.2 16.1 0.00 0.00 0.00 17 1014.1
20260504194552 27 150 3.2 14.5 0.00 0.00 0.00 17 1014.3
20260504193151 27 288 4.8 17.7 0.00 0.00 0.00 17 1014.6
20260504191555 27 94 1.6 12.9 0.00 0.00 0.00 16 1014.7
20260504190047 26 71 1.6 12.9 0.00 0.00 0.00 16 1014.8
20260504184541 26 240 3.2 11.3 0.00 0.00 0.00 18 1015.1
20260504183140 25 82 9.7 16.1 0.00 0.00 0.00 19 1015.2
20260504181545 25 89 3.2 19.3 0.00 0.00 0.00 16 1015.4
20260504180037 26 205 4.8 16.1 0.00 0.00 0.00 17 1015.4
20260504174535 25 128 0.0 11.3 0.00 0.00 0.00 20 1015.4
20260504173135 25 96 6.4 12.9 0.00 0.00 0.00 20 1015.5
20260504171532 25 125 6.4 14.5 0.00 0.00 0.00 20 1015.7
20260504081530 4 166 0.0 0.0 0.00 0.00 0.00 29 1016.8
20260504050007 7 182 0.0 1.6 0.00 0.00 0.00 60 1017.3
20260504044513 7 184 0.0 1.6 0.00 0.00 0.00 60 1016.9
20260504043008 7 184 0.0 0.0 0.00 0.00 0.00 60 1016.9
20260504041501 7 185 0.0 0.0 0.00 0.00 0.00 61 1017.1
20260504040107 8 186 0.0 0.0 0.00 0.00 0.00 61 1017.1